This is the latest recevied weather packets stored in our database for station/object M7PDA-1. If no packets are shown the sender has not sent any weather packets the latest 10 day(s).
| Time | Temp. | Humidity | Pressure | Rain* | Wind** | Luminosity | Snow |
|---|---|---|---|---|---|---|---|
| 1787856239 | 18.33° C | 65% | 1010.2 hPa | - | - | - | - |
| 1787855338 | 18.33° C | 65% | 1010.2 hPa | - | - | - | - |
| 1787854438 | 18.89° C | 64% | 1010.4 hPa | - | - | - | - |
| 1787853537 | 18.89° C | 64% | 1010.4 hPa | - | - | - | - |
| 1787852636 | 18.89° C | 64% | 1010.4 hPa | - | - | - | - |
| 1787851735 | 18.89° C | 65% | 1010.5 hPa | - | - | - | - |
| 1787850834 | 19.44° C | 65% | 1010.6 hPa | - | - | - | - |
| 1787849934 | 19.44° C | 64% | 1011 hPa | - | - | - | - |
| 1787849033 | 19.44° C | 64% | 1010.9 hPa | - | - | - | - |
| 1787848132 | 20° C | 64% | 1010.7 hPa | - | - | - | - |
| 1787847231 | 19.44° C | 64% | 1010.5 hPa | - | - | - | - |
| 1787846330 | 19.44° C | 65% | 1010.5 hPa | - | - | - | - |
| 1787845430 | 18.89° C | 65% | 1010.8 hPa | - | - | - | - |
| 1787844529 | 18.89° C | 66% | 1010.9 hPa | - | - | - | - |
| 1787843628 | 18.89° C | 66% | 1011.2 hPa | - | - | - | - |
| 1787842727 | 18.89° C | 66% | 1011.6 hPa | - | - | - | - |
| 1787841827 | 18.33° C | 66% | 1011.8 hPa | - | - | - | - |
| 1787840926 | 18.33° C | 67% | 1011.8 hPa | - | - | - | - |
| 1787840025 | 18.33° C | 67% | 1011.7 hPa | - | - | - | - |
| 1787839124 | 18.33° C | 67% | 1011.6 hPa | - | - | - | - |
| 1787838223 | 18.33° C | 66% | 1011.6 hPa | - | - | - | - |
| 1787837322 | 18.33° C | 66% | 1011.7 hPa | - | - | - | - |
| 1787836422 | 18.33° C | 66% | 1011.9 hPa | - | - | - | - |
| 1787835521 | 18.33° C | 66% | 1012.2 hPa | - | - | - | - |
| 1787834620 | 18.33° C | 66% | 1012.4 hPa | - | - | - | - |
* Rain since midnight (hover to see other rain measurements)
** Current wind speed in m/s (hover to see current wind gust speed)